Location: Newark
(17.9939°S, 31.0481°E)
Time: 04:54:26
(UTC+00:00)

Altair - All Passes

Search period start: 22 November 2019 00:00
Search period end: 02 December 2019 00:00
Orbit: 1502 x 1682 km, 47.2° (Epoch: 20 November)

Date Brightness Start Highest point End Pass type
(mag) Time Alt. Az. Time Alt. Az. Time Alt. Az.
22 Nov - 09:22:04 10° NNW 09:31:42 61° NE 09:41:38 10° SE daylight
22 Nov - 11:27:48 10° WNW 11:36:49 37° SW 11:46:02 10° SSE daylight
22 Nov - 13:40:50 10° SW 13:44:40 12° SSW 13:48:31 10° S daylight
22 Nov - 15:51:57 10° S 15:54:45 11° SSE 15:57:33 10° SSE daylight
22 Nov - 17:54:13 10° SSW 18:02:55 32° SE 18:11:16 10° E visible
22 Nov - 19:58:21 10° SW 20:08:08 69° NW 20:17:30 10° NNE visible
22 Nov - 22:09:45 10° WNW 22:12:04 11° NW 22:14:23 10° NW visible
23 Nov - 08:57:04 10° NNW 09:06:32 55° NE 09:16:19 10° SE daylight
23 Nov - 11:02:19 10° WNW 11:11:30 41° SW 11:20:56 10° SSE daylight
23 Nov - 13:14:45 10° SW 13:19:08 13° SSW 13:23:32 10° S daylight
23 Nov - 15:27:02 10° S 15:29:11 11° S 15:31:20 10° SSE daylight
23 Nov - 17:29:07 10° SSW 17:37:34 30° SE 17:45:44 10° E visible
23 Nov - 19:33:05 10° SW 19:42:59 76° NW 19:52:26 10° NE visible
23 Nov - 21:42:49 10° W 21:46:56 13° NW 21:51:01 10° NNW visible
24 Nov - 08:32:07 10° NNW 08:41:23 49° NE 08:50:57 10° ESE daylight
24 Nov - 10:36:53 10° WNW 10:46:13 44° SW 10:55:49 10° SSE daylight
24 Nov - 12:48:43 10° SW 12:53:37 14° SSW 12:58:33 10° S daylight
24 Nov - 15:02:13 10° S 15:03:37 10° S 15:05:00 10° SSE daylight
24 Nov - 17:04:02 10° SSW 17:12:15 27° SSE 17:20:10 10° E visible
24 Nov - 19:07:50 10° SW 19:17:49 84° NW 19:27:21 10° NE visible
24 Nov - 21:16:33 10° W 21:21:49 16° NW 21:27:00 10° NNW visible
25 Nov - 08:07:13 10° NNW 08:16:14 44° NE 08:25:34 10° ESE daylight
25 Nov - 10:11:29 10° WNW 10:20:56 49° SW 10:30:42 10° SSE daylight
25 Nov - 12:22:44 10° SW 12:28:07 15° SSW 12:33:32 10° S daylight
25 Nov - 16:38:58 10° SSW 16:46:53 25° SSE 16:54:32 10° E visible
25 Nov - 18:42:36 10° SW 18:52:39 89° SE 19:02:14 10° NE visible
25 Nov - 20:50:33 10° W 20:56:41 19° NW 21:02:43 10° NNW visible
26 Nov - 07:42:22 10° NNW 07:51:06 39° NE 08:00:08 10° ESE daylight
26 Nov - 09:46:08 10° WNW 09:55:40 53° SW 10:05:34 10° SSE daylight
26 Nov - 11:56:48 10° WSW 12:02:38 16° SSW 12:08:31 10° SSE daylight
26 Nov - 16:13:53 10° SSW 16:21:29 23° SSE 16:28:53 10° E daylight
26 Nov - 18:17:24 10° SW 18:27:28 81° SE 18:37:05 10° NE visible
26 Nov - 20:24:43 10° W 20:31:34 22° NW 20:38:17 10° N visible
27 Nov - 07:17:32 10° N 07:25:58 35° NE 07:34:39 10° ESE daylight
27 Nov - 09:20:48 10° WNW 09:30:25 59° SW 09:40:25 10° SE daylight
27 Nov - 11:30:55 10° WSW 11:37:09 18° SSW 11:43:29 10° SSE daylight
27 Nov - 15:48:50 10° SSW 15:56:05 21° SSE 16:03:10 10° ESE daylight
27 Nov - 17:52:12 10° SW 18:02:17 74° SE 18:11:53 10° NE visible
27 Nov - 19:59:00 10° WSW 20:06:27 25° NW 20:13:44 10° N visible
28 Nov - 06:52:47 10° N 07:00:50 31° NE 07:09:07 10° ESE daylight
28 Nov - 08:55:31 10° NW 09:05:11 64° SW 09:15:15 10° SE daylight
28 Nov - 11:05:05 10° WSW 11:11:42 19° SSW 11:18:27 10° SSE daylight
28 Nov - 15:23:47 10° SSW 15:30:40 20° SSE 15:37:25 10° ESE daylight
28 Nov - 17:27:01 10° SW 17:37:04 68° SE 17:46:40 10° NE visible
28 Nov - 19:33:22 10° WSW 19:41:20 28° NW 19:49:05 10° N visible
29 Nov - 06:28:05 10° N 06:35:43 27° NE 06:43:32 10° ESE daylight
29 Nov - 08:30:16 10° NW 08:39:58 71° SW 08:50:05 10° SE daylight
29 Nov - 10:39:18 10° WSW 10:46:16 21° SSW 10:53:24 10° SSE daylight
29 Nov - 14:58:44 10° SSW 15:05:14 18° SSE 15:11:37 10° ESE daylight
29 Nov - 17:01:52 10° SW 17:11:50 61° SE 17:21:24 10° ENE visible
29 Nov - 19:07:49 10° WSW 19:16:13 32° NW 19:24:22 10° N visible
30 Nov - 06:03:29 10° N 06:10:35 24° NE 06:17:53 10° ESE daylight
30 Nov - 08:05:04 10° NW 08:14:46 77° SW 08:24:54 10° SE daylight
30 Nov - 10:13:33 10° WSW 10:20:52 22° SSW 10:28:20 10° SSE daylight
30 Nov - 14:33:41 10° SSW 14:39:46 17° SSE 14:45:46 10° ESE daylight
30 Nov - 16:36:43 10° SW 16:46:36 56° SE 16:56:07 10° ENE visible
30 Nov - 18:42:19 10° WSW 18:51:05 36° NW 18:59:35 10° N visible
01 Dec - 05:38:58 10° N 05:45:28 20° NE 05:52:07 10° E daylight
01 Dec - 07:39:53 10° NW 07:49:34 85° SW 07:59:41 10° SE daylight
01 Dec - 09:47:51 10° W 09:55:28 24° SSW 10:03:16 10° SSE daylight
01 Dec - 14:08:39 10° SSW 14:14:18 16° SSE 14:19:52 10° ESE daylight
01 Dec - 16:11:34 10° SSW 16:21:21 51° SE 16:30:47 10° ENE daylight
01 Dec - 18:16:52 10° WSW 18:25:58 41° NW 18:34:45 10° NNE visible
